Torna al catalogo

FENGYUN 1C DEB

AttivoPO
NORAD 29893·DEBRIS·🇨🇳 China

Lanciato May 10, 1999 da Taiyuan Satellite Launch Center

Loading…

Prossimi Passaggi (prossime 24 ore)

TLE

AggiornatoSource: Space-Track

Epoca: Sep 14, 2026, 16:23 UTC

1 29893U 99025GP  26257.68268683  .00000112  00000-0  12840-3 0  9997
2 29893  98.5397 332.1200 0173901 126.5386  34.0149 13.79569701989440

Traccia FENGYUN 1C DEB in tempo reale con AllMySat

Download on the App Store